www.pogodaiklimat.ru
Время
и дата
04:53 04.10
05:53 04.10
06:53 04.10
07:53 04.10
08:53 04.10
09:53 04.10
10:53 04.10
11:53 04.10
12:53 04.10
13:53 04.10
14:53 04.10
15:53 04.10
16:53 04.10
17:53 04.10
18:53 04.10
19:53 04.10
20:53 04.10
21:53 04.10
22:53 04.10
23:53 04.10
00:53 05.10
01:53 05.10
02:53 05.10
03:53 05.10
04:53 05.10
05:53 05.10
06:53 05.10
07:53 05.10
08:53 05.10
09:53 05.10
10:53 05.10
11:53 05.10
12:53 05.10
13:53 05.10
14:53 05.10
15:53 05.10
16:53 05.10
17:53 05.10
18:53 05.10
19:53 05.10
20:53 05.10
21:53 05.10
22:53 05.10
23:53 05.10
00:53 06.10
01:53 06.10
02:53 06.10
03:53 06.10
Ветер
(напр.,м/с)
Видим. Явления Облачность Т
(С)
Тd
(С)
f
(%)
Тe
(С)
Тes
(С)
Комфортность P
(гПа)
Po
(гПа)
Тmin
(С)
Tmax
(С)
R
(мм)
R24
(мм)
S
(см)
16 км ясно +17.8 +13.3 75 +18 +18 1018.2 1013.7
В 3 16 км ясно +17.8 +13.3 75 +18 +18 1018.7 1014.4 +17.8 +20.6
В 4 16 км ясно +18.9 +13.9 73 +20 +20 1019.1 1014.7
В 5 16 км ясно +20.0 +13.9 68 +22 +22 комфорт 1019.5 1015.1
В 6 16 км ясно +21.7 +12.8 57 +24 +26 комфорт 1019.7 1015.4
В 3 16 км ясно +23.3 +12.8 52 +26 +33 жарко 1019.8 1015.4
нст 2 16 км ясно +24.4 +12.8 48 +26 +38 жарко 1019.7 1015.4
ЮВ 3 16 км ясно +24.4 +12.2 46 +26 +38 жарко 1019.1 1014.7 +17.8 +25.6
штиль 0 16 км ясно +25.6 +12.8 45 +27 +47 жарко 1018.1 1013.7
нст 2 16 км ясно +26.7 +13.3 44 +29 +42 жарко 1017.2 1013.1
нст 2 16 км ясно +26.7 +12.8 42 +28 +38 жарко 1016.7 1012.4
ЮВ 3 16 км ясно +25.6 +12.8 45 +27 +32 жарко 1016.6 1012.4
Ю 3 16 км ясно +24.4 +15.0 56 +27 +29 жарко 1016.8 1012.4
штиль 0 16 км ясно +22.2 +15.0 64 +26 +26 душно 1017.0 1012.7 +22.2 +27.2
штиль 0 16 км ясно +21.7 +15.0 66 +25 +25 комфорт 1017.3 1013.1
штиль 0 16 км ясно +21.7 +15.0 66 +25 +25 комфорт 1017.6 1013.4
СЗ 2 16 км ясно +21.1 +15.0 68 +24 +24 комфорт 1018.1 1013.7
СЗ 2 16 км ясно +20.0 +15.0 73 +23 +23 комфорт 1018.0 1013.7
С 3 16 км ясно +18.9 +14.4 75 +20 +20 1018.1 1013.7
СЗ 2 16 км ясно +18.3 +13.9 76 +19 +19 1017.9 1013.4 +18.3 +22.2
С 2 16 км ясно +17.8 +14.4 80 +18 +18 1017.8 1013.4
штиль 0 16 км ясно +17.8 +14.4 80 +18 +18 1017.5 1013.1
С 2 16 км 2/2 1800 м +17.2 +14.4 84 +18 +18 1017.4 1013.1
С 2 16 км ясно +15.6 +13.9 90 +15 +15 1017.6 1013.4
штиль 0 16 км 8/8 1800 м +16.7 +14.4 86 +17 +17 1018.0 1013.7
С 2 16 км 8/8 1800 м +16.7 +14.4 86 +17 +17 1018.3 1014.1 +15.6 +18.3
С 2 16 км 10/10 1800 м +18.9 +15.6 81 +21 +21 комфорт 1018.8 1014.4
С 2 16 км 2/2 1800 м +23.3 +16.1 64 +28 +29 душно 1019.2 1014.7
нст 2 14 км ясно +25.0 +15.6 56 +28 +32 жарко 1019.3 1015.1
С 4 16 км 5/5 1650 м +28.3 +12.8 38 +30 +32 жарко 1019.3 1015.1
С 4 16 км 2/2 1650 м +28.3 +12.2 37 +29 +35 жарко 1018.9 1014.7
С 4 16 км 5/5 1800 м +27.8 +13.3 41 +30 +34 жарко 1018.0 1013.7 +16.7 +28.9
СЗ 5 16 км 2/2 1800 м +29.4 +13.3 37 +31 +37 жарко 1017.2 1013.1
16 км 5/5 1800 м +28.9 +13.3 38 +30 +39 жарко 1016.4 1012.0
нст 3 16 км 2/2 1800 м +28.9 +12.8 37 +30 +37 жарко 1016.2 1012.0
Ю 5 16 км 2/2 1800 м +27.8 +14.4 44 +30 +33 жарко 1016.1 1011.7
ЮЗ 5 16 км ясно +25.6 +14.4 50 +28 +29 жарко 1016.4 1012.0
ЮЗ 3 16 км ясно +23.9 +15.0 57 +27 +27 жарко 1017.1 1012.7 +23.9 +30.0
З 2 16 км ясно +23.3 +15.0 60 +27 +27 душно 1017.5 1013.1
штиль 0 16 км ясно +22.2 +15.0 64 +26 +26 душно 1017.9 1013.4
С 3 16 км ясно +21.7 +15.6 68 +25 +25 комфорт 1018.1 1013.7
С 2 16 км ясно +21.7 +13.9 61 +25 +25 комфорт 1018.3 1014.1
С 2 16 км ясно +20.6 +13.3 63 +24 +24 комфорт 1018.3 1014.1
штиль 0 16 км ясно +20.0 +13.3 65 +22 +22 комфорт 1018.2 1014.1 +18.9 +23.9
СЗ 2 16 км ясно +17.8 +13.3 75 +18 +18 1018.3 1014.1
С 2 16 км ясно +17.8 +13.3 75 +18 +18 1018.2 1014.1
СЗ 2 16 км ясно +18.3 +13.3 73 +19 +19 1018.2 1014.1
С 2 16 км ясно +17.2 +12.8 75 +18 +18 1018.4 1014.1
Местоположение метеостанции Pensacola Regional Airport: широта 30.4781 долгота -87.1869 высота над уровнем моря 34 м.
В архиве по умолчанию представлена погода в Пенсаколе за последние 1-2 суток. Обновление информации о фактической погоде в базе происходит ежечасно! Архивные данные за месяц целиком и за предыдущие месяцы Вы можете получить, выбрав интересующий диапазон дат из раскрывающегося списка и нажав кнопку "Ввод!".
Внимание! Архив погоды МЕТАР в базе сайта по станциям, не включенным в климатический монитор, хранится не более 60 дней. Нет смысла пытаться выбрать более раннюю дату.
*Определитесь, кто Вы:
Внимание! Время в таблицах - местное (без учета летнего времени). Для получения всемирного времени необходимо вычесть поправку, которая равна -6 ч.
Смотрите также архив погоды в соседних городах и на ближайших метеорологических станциях:
Партнеры нашего сайта:      
Пояснения к столбцам:
  • Ветер - указаны скорость ветра в м/с - средняя за 10 мин, порывы в срок и между сроками (в фигурных скобках) и направление, откуда дует ветер: С - северный,
  • СВ - северо-восточный, В - восточный, ЮВ - юго-восточный, Ю - южный, ЮЗ - юго-западный, З - западный, СЗ - северо-западный.
  • Видимость - горизонтальная дальность видимости в метрах или километрах. При видимости от 1 до 10 км при отсутствии осадков обычно наблюдается дымка, при ухудшении видимости до 1 км и менее - туман. В сухую погоду видимость может ухудшаться дымом, пылью или мглою.
  • Явления - указаны атмосферные явления, наблюдавшиеся в срок или в последний час перед сроком; фигурными скобками обозначены явления, наблюдавшиеся между сроками (за 1-3 часа до срока); квадратными скобками обозначены град или гололедные отложения с указанием их диаметра в мм.
  • Облачность - указаны через наклонную черту общая и нижняя облачность в баллах и высота нижней границы облаков в метрах; квадратными скобками обозначены формы облаков: Ci - перистые, Cs - перисто-слоистые, Cc - перисто-кучевые, Ac - высококучевые, As - высокослоистые, Sc - слоисто-кучевые, Ns - слоисто-дождевые, Cu - кучевые, Cb - кучево-дождевые. Подробнее классификацию облаков см. в Атласе облаков (PDF).
  • T - Температура воздуха - температура, измеренная на высоте 2 м над землей.
  • Td - Температура точки росы - температура, при понижении до которой содержащийся в воздухе водяной пар достигнет насыщения.
  • f - Относительная влажность воздуха - влажноcть воздуха, измеренная на высоте 2 м над землей.
  • Te - Эффективная температура - температура, которую ощущает одетый по сезону человек в тени. Характеристика душности погоды. При расчете учитывается влияние влажности воздуха и скорости ветра на теплоощущения человека.
  • Tes - Эффективная температура на солнце - температура, которую ощущает человек, с поправкой на солнечный нагрев. Характеристика знойности погоды. Зависит от высоты солнца над горизонтом, облачности и скорости ветра. Ночью, в пасмурную погоду, а также при ветре 12 м/с и более поправка равна нулю.
  • P - Атмосферное давление - приведенное к уровню моря атмосферное давление.
  • Po - Атмосферное давление - измеренное на уровне метеостанции атмосферное давление.
  • Tmin - Минимальная температура - минимум температуры воздуха на высоте 2 м над землей.
  • Tmax - Максимальная температура - максимум температуры воздуха на высоте 2 м над землей.
  • R - Количество осадков - Количество выпавших осадков за период времени, мм. При наведении курсора мыши на число - период времени, за который выпало указанное количество осадков.
  • R24 - Количество осадков - Количество выпавших осадков за 24 часа, мм.
  • S - Снежный покров - Высота снежного покрова, см. При наведении курсора мыши на число - состояние снежного покрова и степень покрытия местности в баллах.